QPF
0.00 0.01 0.01 0.01 0.01 0.01 0.02 0.01 0.01 0.01 0.01 0.01 0.01 0.01 0.01 0.01 0.02 0.01 0.01 0.01 0.01 0.02 0.05 0.11 0.13 0.09 0.08 0.09 0.09 0.09 0.09 0.10 0.10 0.09 0.07 0.05 0.06 0.07 0.06 0.06 0.06 0.06 0.09
0.00 0.01 0.02 0.02 0.01 0.01 0.01 0.01 0.01 0.01 0.01 0.00 0.00 0.00 0.01 0.02 0.02 0.01 0.01 0.01 0.01 0.02 0.02 0.07 0.13 0.13 0.11 0.11 0.12 0.12 0.12 0.12 0.12 0.10 0.09 0.06 0.05 0.06 0.06 0.06 0.06 0.06 0.07
0.01 0.01 0.02 0.02 0.01 0.01 0.01 0.01 0.00 0.00 0.00 0.00 0.00 0.00 0.00 0.02 0.02 0.01 0.02 0.02 0.01 0.01 0.01 0.02 0.06 0.10 0.11 0.10 0.10 0.10 0.10 0.10 0.11 0.10 0.08 0.06 0.04 0.05 0.05 0.06 0.06 0.06 0.08
0.01 0.01 0.01 0.02 0.01 0.01 0.01 0.01 0.01 0.01 0.00 0.01 0.00 0.00 0.00 0.01 0.01 0.01 0.02 0.02 0.02 0.02 0.01 0.01 0.01 0.03 0.05 0.08 0.07 0.06 0.05 0.07 0.08 0.10 0.07 0.06 0.04 0.04 0.04 0.05 0.05 0.07 0.07
0.01 0.01 0.01 0.01 0.01 0.01 0.01 0.01 0.00 0.00 0.01 0.01 0.01 0.01 0.01 0.01 0.02 0.03 0.03 0.02 0.02 0.03 0.03 0.02 0.02 0.02 0.02 0.03 0.04 0.05 0.04 0.05 0.06 0.06 0.06 0.05 0.04 0.04 0.03 0.04 0.05 0.05 0.04
0.01 0.01 0.01 0.01 0.01 0.01 0.01 0.00 0.01 0.01 0.01 0.02 0.03 0.03 0.03 0.02 0.03 0.04 0.04 0.03 0.03 0.03 0.03 0.02 0.03 0.03 0.02 0.01 0.02 0.02 0.02 0.02 0.03 0.03 0.03 0.03 0.03 0.03 0.04 0.03 0.04 0.04 0.05
0.01 0.01 0.01 0.01 0.01 0.01 0.01 0.01 0.02 0.02 0.03 0.03 0.03 0.03 0.03 0.03 0.04 0.04 0.05 0.05 0.04 0.05 0.05 0.03 0.03 0.03 0.03 0.03 0.03 0.03 0.03 0.04 0.04 0.04 0.04 0.03 0.03 0.04 0.05 0.04 0.03 0.02 0.03
0.02 0.02 0.02 0.02 0.02 0.01 0.01 0.01 0.01 0.02 0.03 0.02 0.03 0.04 0.05 0.06 0.08 0.08 0.08 0.07 0.07 0.07 0.06 0.04 0.03 0.05 0.05 0.06 0.07 0.07 0.05 0.05 0.05 0.04 0.05 0.05 0.04 0.05 0.05 0.05 0.04 0.03 0.03
0.01 0.01 0.01 0.01 0.02 0.01 0.01 0.01 0.01 0.01 0.01 0.01 0.02 0.02 0.02 0.03 0.05 0.08 0.08 0.06 0.05 0.03 0.03 0.02 0.03 0.03 0.05 0.04 0.03 0.03 0.04 0.04 0.04 0.05 0.04 0.04 0.04 0.04 0.04 0.05 0.06 0.05 0.03
0.01 0.01 0.01 0.01 0.01 0.01 0.01 0.01 0.00 0.00 0.01 0.01 0.01 0.01 0.01 0.01 0.02 0.03 0.02 0.03 0.03 0.04 0.04 0.03 0.03 0.03 0.03 0.04 0.04 0.03 0.04 0.04 0.04 0.05 0.04 0.04 0.03 0.03 0.04 0.04 0.04 0.04 0.03
0.01 0.01 0.01 0.01 0.01 0.02 0.02 0.01 0.01 0.01 0.01 0.01 0.01 0.01 0.01 0.01 0.01 0.03 0.04 0.04 0.03 0.05 0.05 0.03 0.02 0.02 0.02 0.03 0.04 0.04 0.04 0.04 0.04 0.04 0.04 0.03 0.03 0.02 0.03 0.03 0.03 0.03 0.04
0.01 0.01 0.01 0.01 0.01 0.02 0.02 0.02 0.01 0.01 0.01 0.01 0.01 0.01 0.02 0.03 0.03 0.08 0.09 0.04 0.03 0.03 0.03 0.02 0.02 0.01 0.01 0.03 0.04 0.04 0.04 0.04 0.03 0.03 0.03 0.03 0.03 0.03 0.02 0.03 0.03 0.03 0.03
0.01 0.01 0.01 0.01 0.01 0.01 0.01 0.01 0.02 0.01 0.01 0.01 0.02 0.03 0.04 0.04 0.04 0.11 0.14 0.06 0.04 0.04 0.04 0.04 0.02 0.02 0.01 0.01 0.02 0.03 0.03 0.03 0.03 0.03 0.02 0.02 0.02 0.02 0.04 0.04 0.03 0.03 0.03
0.02 0.02 0.02 0.03 0.03 0.03 0.04 0.04 0.04 0.03 0.02 0.02 0.02 0.03 0.04 0.04 0.04 0.04 0.04 0.05 0.05 0.05 0.05 0.06 0.05 0.04 0.03 0.02 0.02 0.02 0.02 0.02 0.02 0.02 0.02 0.02 0.02 0.04 0.04 0.04 0.04 0.04 0.04
0.04 0.04 0.05 0.05 0.05 0.06 0.06 0.06 0.07 0.06 0.05 0.04 0.03 0.03 0.03 0.04 0.05 0.05 0.04 0.03 0.04 0.06 0.07 0.06 0.06 0.06 0.05 0.03 0.03 0.03 0.03 0.03 0.03 0.03 0.03 0.04 0.04 0.05 0.05 0.04 0.03 0.05 0.05
0.05 0.05 0.05 0.06 0.07 0.07 0.07 0.07 0.07 0.08 0.09 0.08 0.05 0.05 0.05 0.04 0.04 0.05 0.04 0.04 0.05 0.07 0.07 0.07 0.06 0.06 0.05 0.04 0.04 0.04 0.05 0.06 0.06 0.06 0.06 0.05 0.05 0.05 0.04 0.03 0.04 0.05 0.05
0.08 0.07 0.06 0.11 0.11 0.08 0.07 0.08 0.10 0.13 0.12 0.12 0.10 0.07 0.06 0.05 0.04 0.04 0.05 0.04 0.04 0.05 0.05 0.08 0.09 0.09 0.07 0.06 0.05 0.05 0.05 0.06 0.07 0.07 0.06 0.05 0.04 0.04 0.02 0.02 0.03 0.04 0.04
0.09 0.10 0.12 0.13 0.11 0.10 0.09 0.08 0.09 0.09 0.09 0.10 0.11 0.10 0.07 0.05 0.05 0.06 0.05 0.03 0.04 0.05 0.05 0.05 0.05 0.07 0.07 0.08 0.07 0.05 0.04 0.05 0.06 0.05 0.05 0.05 0.06 0.07 0.05 0.04 0.03 0.02 0.02
0.06 0.07 0.04 0.03 0.04 0.04 0.04 0.04 0.05 0.06 0.08 0.09 0.12 0.15 0.11 0.08 0.08 0.06 0.04 0.03 0.04 0.05 0.06 0.05 0.05 0.05 0.05 0.05 0.07 0.08 0.06 0.05 0.03 0.02 0.03 0.04 0.05 0.05 0.06 0.05 0.04 0.03 0.02
0.04 0.05 0.03 0.02 0.03 0.03 0.03 0.03 0.03 0.04 0.06 0.10 0.13 0.11 0.10 0.08 0.05 0.04 0.04 0.04 0.05 0.07 0.11 0.07 0.05 0.04 0.04 0.04 0.04 0.05 0.05 0.05 0.04 0.03 0.02 0.03 0.03 0.03 0.04 0.05 0.03 0.02 0.01
0.03 0.04 0.03 0.03 0.03 0.03 0.03 0.04 0.04 0.05 0.04 0.05 0.06 0.05 0.06 0.08 0.07 0.06 0.05 0.05 0.07 0.10 0.11 0.07 0.04 0.03 0.03 0.02 0.02 0.02 0.02 0.02 0.02 0.02 0.02 0.02 0.03 0.02 0.02 0.02 0.02 0.01 0.01
0.04 0.06 0.04 0.03 0.03 0.03 0.04 0.03 0.04 0.04 0.04 0.04 0.04 0.04 0.04 0.05 0.06 0.07 0.08 0.07 0.07 0.07 0.06 0.04 0.03 0.02 0.02 0.01 0.01 0.01 0.01 0.01 0.01 0.01 0.02 0.02 0.02 0.01 0.01 0.01 0.01 0.01 0.01
0.05 0.05 0.05 0.04 0.05 0.06 0.05 0.04 0.02 0.03 0.03 0.05 0.05 0.05 0.05 0.05 0.04 0.04 0.04 0.04 0.04 0.04 0.04 0.03 0.02 0.01 0.02 0.01 0.01 0.01 0.02 0.02 0.01 0.01 0.01 0.01 0.01 0.01 0.02 0.02 0.01 0.01 0.01
0.04 0.04 0.06 0.07 0.08 0.12 0.10 0.09 0.06 0.05 0.06 0.06 0.07 0.08 0.06 0.06 0.05 0.04 0.03 0.03 0.02 0.03 0.03 0.02 0.01 0.01 0.01 0.01 0.01 0.01 0.02 0.02 0.02 0.02 0.02 0.02 0.02 0.02 0.02 0.02 0.02 0.02 0.01
0.06 0.05 0.06 0.07 0.08 0.11 0.13 0.14 0.12 0.09 0.09 0.09 0.11 0.13 0.11 0.08 0.07 0.05 0.04 0.03 0.02 0.02 0.02 0.02 0.02 0.02 0.02 0.02 0.02 0.03 0.02 0.02 0.03 0.03 0.03 0.03 0.02 0.02 0.01 0.01 0.01 0.02 0.02
0.06 0.05 0.05 0.05 0.06 0.08 0.10 0.12 0.14 0.14 0.14 0.12 0.10 0.14 0.20 0.18 0.13 0.08 0.05 0.04 0.03 0.03 0.03 0.03 0.03 0.02 0.02 0.03 0.03 0.03 0.04 0.04 0.04 0.03 0.02 0.02 0.02 0.02 0.02 0.02 0.01 0.01 0.01
MSLP
1008.04 1008.18 1008.27 1008.33 1008.36 1008.42 1008.56 1008.79 1009.15 1009.62 1010.17 1010.74 1011.28 1011.72 1012.05 1012.24 1012.32 1012.33 1012.32 1012.33 1012.41 1012.58 1012.84 1013.17 1013.53 1013.90 1014.25 1014.55 1014.79 1014.99 1015.14 1015.27 1015.37 1015.44 1015.48 1015.47 1015.40 1015.28 1015.10 1014.90 1014.69 1014.53 1014.43
1007.38 1007.60 1007.74 1007.79 1007.80 1007.81 1007.89 1008.08 1008.44 1008.94 1009.56 1010.24 1010.88 1011.43 1011.83 1012.05 1012.11 1012.07 1011.97 1011.90 1011.91 1012.03 1012.26 1012.59 1012.99 1013.39 1013.77 1014.10 1014.36 1014.57 1014.74 1014.88 1015.02 1015.15 1015.27 1015.35 1015.38 1015.35 1015.24 1015.09 1014.91 1014.73 1014.58
1006.72 1007.01 1007.20 1007.28 1007.28 1007.25 1007.27 1007.41 1007.73 1008.24 1008.90 1009.64 1010.36 1010.99 1011.46 1011.72 1011.78 1011.71 1011.56 1011.43 1011.38 1011.45 1011.66 1011.98 1012.39 1012.81 1013.22 1013.57 1013.85 1014.07 1014.25 1014.43 1014.60 1014.80 1014.99 1015.17 1015.30 1015.37 1015.35 1015.26 1015.11 1014.92 1014.74
1006.11 1006.47 1006.72 1006.83 1006.82 1006.75 1006.71 1006.78 1007.05 1007.52 1008.17 1008.92 1009.70 1010.38 1010.90 1011.20 1011.28 1011.21 1011.05 1010.88 1010.79 1010.83 1011.01 1011.33 1011.74 1012.17 1012.59 1012.96 1013.25 1013.49 1013.70 1013.89 1014.11 1014.36 1014.63 1014.90 1015.13 1015.29 1015.36 1015.33 1015.22 1015.04 1014.84
1005.62 1006.03 1006.33 1006.48 1006.47 1006.37 1006.26 1006.25 1006.42 1006.81 1007.40 1008.13 1008.90 1009.60 1010.15 1010.49 1010.61 1010.56 1010.40 1010.23 1010.13 1010.15 1010.32 1010.62 1011.03 1011.47 1011.90 1012.27 1012.58 1012.84 1013.06 1013.29 1013.54 1013.84 1014.17 1014.51 1014.82 1015.07 1015.22 1015.26 1015.19 1015.03 1014.83
1005.26 1005.72 1006.08 1006.26 1006.26 1006.12 1005.94 1005.83 1005.89 1006.17 1006.65 1007.30 1008.03 1008.71 1009.27 1009.63 1009.79 1009.77 1009.64 1009.48 1009.39 1009.40 1009.56 1009.86 1010.26 1010.70 1011.13 1011.52 1011.84 1012.11 1012.36 1012.61 1012.89 1013.22 1013.60 1013.99 1014.37 1014.69 1014.91 1015.01 1014.99 1014.88 1014.70
1005.07 1005.56 1005.97 1006.18 1006.19 1006.03 1005.79 1005.58 1005.51 1005.65 1006.00 1006.54 1007.17 1007.80 1008.33 1008.70 1008.87 1008.88 1008.79 1008.66 1008.58 1008.60 1008.75 1009.04 1009.42 1009.86 1010.29 1010.69 1011.03 1011.32 1011.58 1011.85 1012.16 1012.52 1012.92 1013.35 1013.77 1014.14 1014.42 1014.59 1014.64 1014.58 1014.45
1005.02 1005.55 1006.00 1006.26 1006.28 1006.10 1005.81 1005.51 1005.31 1005.31 1005.51 1005.90 1006.41 1006.94 1007.42 1007.76 1007.94 1007.96 1007.89 1007.78 1007.71 1007.73 1007.88 1008.15 1008.52 1008.95 1009.38 1009.78 1010.14 1010.45 1010.74 1011.04 1011.36 1011.73 1012.15 1012.60 1013.05 1013.46 1013.79 1014.03 1014.15 1014.18 1014.12
1005.09 1005.67 1006.16 1006.45 1006.50 1006.32 1005.99 1005.62 1005.32 1005.18 1005.23 1005.46 1005.82 1006.23 1006.61 1006.89 1007.04 1007.06 1006.98 1006.88 1006.81 1006.82 1006.95 1007.20 1007.56 1007.97 1008.40 1008.81 1009.19 1009.53 1009.85 1010.17 1010.51 1010.90 1011.32 1011.78 1012.25 1012.69 1013.06 1013.36 1013.57 1013.69 1013.73
1005.28 1005.89 1006.42 1006.75 1006.82 1006.65 1006.31 1005.89 1005.51 1005.25 1005.16 1005.23 1005.44 1005.71 1005.96 1006.14 1006.22 1006.19 1006.09 1005.96 1005.87 1005.87 1005.97 1006.20 1006.53 1006.93 1007.36 1007.79 1008.20 1008.57 1008.93 1009.28 1009.64 1010.04 1010.47 1010.93 1011.40 1011.86 1012.28 1012.64 1012.93 1013.15 1013.31
1005.56 1006.20 1006.75 1007.11 1007.20 1007.05 1006.71 1006.28 1005.84 1005.49 1005.28 1005.21 1005.25 1005.36 1005.46 1005.51 1005.48 1005.37 1005.21 1005.04 1004.91 1004.87 1004.95 1005.16 1005.47 1005.87 1006.31 1006.76 1007.20 1007.62 1008.01 1008.40 1008.79 1009.20 1009.63 1010.09 1010.56 1011.03 1011.48 1011.89 1012.26 1012.58 1012.85
1005.93 1006.58 1007.13 1007.48 1007.59 1007.46 1007.14 1006.70 1006.25 1005.84 1005.52 1005.32 1005.20 1005.13 1005.06 1004.96 1004.79 1004.57 1004.33 1004.09 1003.92 1003.85 1003.90 1004.10 1004.41 1004.81 1005.27 1005.76 1006.25 1006.71 1007.15 1007.58 1008.00 1008.42 1008.85 1009.30 1009.76 1010.24 1010.71 1011.16 1011.60 1012.00 1012.37
1006.37 1006.99 1007.50 1007.84 1007.94 1007.83 1007.53 1007.11 1006.65 1006.20 1005.81 1005.48 1005.21 1004.96 1004.71 1004.43 1004.11 1003.77 1003.42 1003.12 1002.91 1002.81 1002.85 1003.05 1003.38 1003.80 1004.30 1004.84 1005.37 1005.89 1006.39 1006.85 1007.30 1007.73 1008.17 1008.60 1009.05 1009.52 1009.99 1010.47 1010.94 1011.41 1011.87
1006.84 1007.40 1007.85 1008.14 1008.22 1008.11 1007.83 1007.44 1006.99 1006.52 1006.06 1005.62 1005.20 1004.78 1004.35 1003.89 1003.42 1002.94 1002.50 1002.14 1001.89 1001.78 1001.84 1002.06 1002.42 1002.89 1003.44 1004.03 1004.63 1005.20 1005.75 1006.25 1006.73 1007.17 1007.60 1008.03 1008.46 1008.90 1009.36 1009.84 1010.34 1010.85 1011.35
1007.31 1007.78 1008.14 1008.36 1008.40 1008.29 1008.04 1007.67 1007.24 1006.75 1006.24 1005.71 1005.15 1004.57 1003.96 1003.33 1002.71 1002.11 1001.59 1001.18 1000.92 1000.83 1000.92 1001.18 1001.60 1002.13 1002.74 1003.38 1004.04 1004.67 1005.26 1005.80 1006.30 1006.75 1007.18 1007.59 1008.00 1008.41 1008.85 1009.32 1009.82 1010.34 1010.87
1007.72 1008.08 1008.34 1008.48 1008.49 1008.37 1008.14 1007.81 1007.40 1006.91 1006.36 1005.74 1005.07 1004.34 1003.58 1002.80 1002.04 1001.35 1000.77 1000.34 1000.09 1000.03 1000.17 1000.50 1000.98 1001.57 1002.23 1002.93 1003.63 1004.31 1004.94 1005.51 1006.03 1006.49 1006.92 1007.32 1007.70 1008.09 1008.50 1008.95 1009.43 1009.95 1010.48
1008.01 1008.27 1008.44 1008.51 1008.49 1008.38 1008.17 1007.88 1007.50 1007.02 1006.44 1005.77 1005.00 1004.15 1003.27 1002.37 1001.52 1000.77 1000.16 999.73 999.51 999.50 999.69 1000.08 1000.62 1001.26 1001.97 1002.71 1003.44 1004.14 1004.80 1005.39 1005.92 1006.40 1006.82 1007.22 1007.59 1007.96 1008.35 1008.77 1009.23 1009.72 1010.25
1008.16 1008.34 1008.43 1008.46 1008.43 1008.34 1008.18 1007.95 1007.61 1007.15 1006.57 1005.86 1005.03 1004.11 1003.14 1002.18 1001.28 1000.50 999.89 999.48 999.30 999.34 999.59 1000.03 1000.61 1001.28 1002.01 1002.75 1003.49 1004.20 1004.85 1005.45 1006.00 1006.48 1006.92 1007.32 1007.69 1008.06 1008.43 1008.83 1009.26 1009.73 1010.23
1008.16 1008.29 1008.35 1008.38 1008.37 1008.32 1008.22 1008.05 1007.77 1007.35 1006.80 1006.09 1005.24 1004.30 1003.31 1002.33 1001.42 1000.66 1000.07 999.71 999.57 999.66 999.95 1000.41 1000.99 1001.65 1002.36 1003.08 1003.79 1004.47 1005.12 1005.71 1006.26 1006.76 1007.21 1007.63 1008.02 1008.39 1008.76 1009.15 1009.56 1010.00 1010.48
1008.04 1008.16 1008.24 1008.29 1008.33 1008.34 1008.32 1008.22 1008.02 1007.67 1007.16 1006.50 1005.69 1004.78 1003.82 1002.88 1002.02 1001.31 1000.78 1000.47 1000.38 1000.49 1000.79 1001.23 1001.78 1002.39 1003.04 1003.70 1004.35 1004.98 1005.59 1006.17 1006.72 1007.23 1007.71 1008.15 1008.56 1008.96 1009.34 1009.73 1010.12 1010.54 1010.98
1007.88 1008.03 1008.14 1008.24 1008.34 1008.43 1008.49 1008.47 1008.35 1008.09 1007.67 1007.09 1006.37 1005.55 1004.68 1003.84 1003.08 1002.45 1002.00 1001.75 1001.70 1001.82 1002.09 1002.49 1002.96 1003.49 1004.04 1004.60 1005.16 1005.72 1006.28 1006.83 1007.37 1007.89 1008.39 1008.87 1009.31 1009.74 1010.14 1010.53 1010.92 1011.32 1011.72
1007.73 1007.93 1008.09 1008.25 1008.42 1008.58 1008.71 1008.78 1008.75 1008.59 1008.27 1007.81 1007.22 1006.54 1005.82 1005.12 1004.50 1004.00 1003.64 1003.46 1003.43 1003.55 1003.78 1004.09 1004.46 1004.87 1005.29 1005.73 1006.19 1006.66 1007.16 1007.67 1008.20 1008.73 1009.25 1009.76 1010.24 1010.69 1011.11 1011.50 1011.89 1012.27 1012.65
1007.68 1007.92 1008.13 1008.34 1008.56 1008.77 1008.96 1009.10 1009.15 1009.09 1008.90 1008.58 1008.15 1007.65 1007.11 1006.60 1006.14 1005.79 1005.55 1005.43 1005.43 1005.53 1005.69 1005.91 1006.16 1006.44 1006.73 1007.04 1007.38 1007.77 1008.20 1008.67 1009.18 1009.71 1010.25 1010.78 1011.28 1011.75 1012.19 1012.59 1012.97 1013.33 1013.68
1007.74 1008.01 1008.26 1008.49 1008.73 1008.97 1009.20 1009.38 1009.50 1009.53 1009.46 1009.30 1009.05 1008.74 1008.42 1008.10 1007.84 1007.64 1007.51 1007.47 1007.49 1007.57 1007.67 1007.80 1007.93 1008.07 1008.23 1008.43 1008.67 1008.97 1009.34 1009.78 1010.27 1010.80 1011.34 1011.88 1012.39 1012.87 1013.31 1013.71 1014.08 1014.42 1014.74
1007.91 1008.20 1008.45 1008.69 1008.93 1009.17 1009.39 1009.60 1009.76 1009.87 1009.91 1009.89 1009.82 1009.71 1009.59 1009.48 1009.40 1009.36 1009.35 1009.38 1009.43 1009.49 1009.54 1009.58 1009.62 1009.65 1009.71 1009.81 1009.97 1010.21 1010.54 1010.94 1011.41 1011.93 1012.47 1013.00 1013.51 1013.99 1014.42 1014.81 1015.15 1015.48 1015.78
1008.18 1008.46 1008.70 1008.91 1009.12 1009.33 1009.54 1009.74 1009.92 1010.09 1010.22 1010.32 1010.40 1010.47 1010.54 1010.62 1010.70 1010.81 1010.91 1011.01 1011.09 1011.14 1011.15 1011.14 1011.11 1011.07 1011.07 1011.11 1011.22 1011.42 1011.71 1012.09 1012.55 1013.05 1013.57 1014.09 1014.59 1015.04 1015.45 1015.81 1016.14 1016.44 1016.72
Thickness
5812 5812 5811 5809 5806 5803 5800 5798 5795 5794 5792 5789 5786 5783 5781 5782 5783 5783 5782 5781 5779 5777 5775 5773 5771 5769 5766 5764 5762 5760 5757 5755 5754 5750 5747 5748 5750 5749 5749 5748 5747 5745 5744
5809 5809 5809 5807 5805 5802 5801 5799 5797 5795 5794 5792 5789 5787 5785 5783 5783 5783 5781 5780 5779 5777 5775 5772 5769 5767 5765 5762 5760 5758 5755 5753 5752 5746 5740 5737 5739 5744 5747 5746 5745 5744 5743
5810 5809 5808 5807 5805 5803 5802 5802 5799 5797 5795 5794 5791 5788 5784 5782 5780 5779 5779 5779 5778 5776 5773 5771 5769 5767 5764 5761 5759 5757 5754 5749 5749 5748 5741 5733 5730 5734 5739 5742 5742 5741 5740
5814 5811 5809 5806 5806 5805 5805 5803 5800 5798 5796 5794 5790 5786 5781 5777 5778 5778 5778 5777 5776 5775 5773 5771 5769 5766 5763 5760 5759 5757 5754 5750 5746 5745 5745 5742 5738 5731 5729 5734 5737 5738 5737
5817 5814 5812 5810 5809 5807 5805 5803 5801 5798 5796 5794 5791 5786 5783 5781 5779 5778 5776 5775 5774 5773 5772 5770 5768 5765 5763 5761 5758 5756 5754 5751 5748 5744 5743 5740 5738 5735 5729 5726 5729 5732 5734
5818 5815 5814 5811 5808 5807 5805 5802 5799 5797 5796 5793 5790 5787 5783 5780 5777 5775 5773 5772 5771 5771 5770 5768 5766 5763 5761 5759 5757 5755 5753 5751 5749 5746 5744 5740 5736 5733 5730 5726 5725 5726 5729
5817 5814 5811 5809 5807 5805 5804 5801 5798 5795 5794 5792 5789 5786 5783 5780 5777 5774 5772 5770 5768 5767 5767 5766 5763 5761 5759 5757 5756 5753 5751 5750 5747 5745 5744 5742 5740 5738 5733 5728 5724 5723 5725
5817 5815 5813 5811 5808 5806 5804 5800 5797 5794 5792 5790 5787 5785 5783 5780 5777 5775 5772 5770 5768 5767 5766 5764 5762 5760 5758 5756 5753 5751 5750 5748 5746 5745 5744 5741 5740 5739 5736 5730 5725 5720 5719
5816 5815 5814 5812 5809 5806 5804 5801 5797 5793 5791 5788 5785 5783 5781 5779 5776 5774 5772 5770 5768 5767 5764 5762 5759 5757 5755 5753 5751 5748 5747 5746 5744 5743 5742 5740 5739 5738 5736 5733 5729 5721 5714
5815 5814 5813 5812 5809 5806 5804 5801 5797 5793 5790 5788 5785 5783 5780 5778 5776 5773 5770 5767 5766 5765 5762 5760 5757 5755 5753 5751 5748 5746 5745 5743 5742 5741 5739 5737 5736 5735 5734 5731 5728 5725 5718
5813 5812 5812 5811 5809 5805 5801 5797 5794 5791 5787 5785 5783 5780 5778 5776 5774 5770 5767 5765 5763 5761 5759 5757 5755 5752 5750 5748 5745 5743 5742 5739 5738 5737 5735 5734 5733 5731 5730 5728 5725 5722 5718
5812 5811 5809 5807 5805 5802 5799 5795 5792 5788 5786 5783 5780 5777 5774 5772 5770 5767 5764 5762 5760 5758 5756 5754 5752 5750 5747 5745 5742 5739 5738 5736 5734 5733 5731 5730 5730 5727 5726 5724 5721 5719 5716
5806 5805 5802 5799 5798 5797 5796 5793 5790 5786 5783 5780 5776 5773 5770 5767 5765 5763 5761 5758 5756 5754 5752 5751 5748 5746 5744 5741 5739 5737 5735 5733 5731 5729 5727 5726 5724 5721 5721 5719 5716 5715 5713
5798 5797 5796 5794 5793 5792 5790 5788 5785 5784 5781 5777 5773 5770 5767 5764 5762 5760 5757 5755 5753 5750 5748 5747 5744 5742 5740 5738 5736 5734 5731 5729 5727 5726 5724 5722 5720 5717 5716 5715 5712 5710 5707
5792 5791 5790 5789 5788 5786 5784 5782 5780 5778 5777 5772 5768 5766 5763 5761 5758 5755 5753 5752 5749 5747 5745 5742 5739 5737 5735 5733 5731 5729 5727 5724 5722 5721 5720 5718 5717 5715 5713 5711 5708 5705 5701
5786 5786 5786 5784 5783 5781 5778 5777 5776 5774 5772 5768 5764 5762 5759 5756 5753 5751 5749 5746 5744 5742 5740 5737 5735 5732 5731 5730 5727 5725 5722 5720 5717 5715 5714 5713 5711 5710 5708 5707 5705 5702 5697
5780 5780 5780 5780 5778 5777 5774 5772 5772 5771 5767 5762 5759 5756 5754 5751 5749 5747 5743 5741 5739 5736 5733 5731 5730 5727 5726 5724 5722 5720 5717 5715 5712 5710 5708 5708 5707 5704 5702 5700 5699 5696 5694
5774 5775 5776 5776 5774 5773 5771 5769 5767 5765 5761 5758 5754 5751 5748 5745 5743 5740 5738 5736 5734 5731 5728 5726 5724 5721 5720 5718 5717 5715 5712 5710 5708 5706 5704 5701 5700 5699 5696 5694 5691 5688 5687
5771 5771 5772 5770 5768 5766 5765 5762 5759 5757 5754 5751 5748 5745 5742 5739 5736 5734 5732 5731 5728 5726 5723 5721 5719 5716 5715 5713 5712 5710 5707 5704 5702 5701 5700 5697 5694 5693 5690 5686 5683 5680 5679
5766 5765 5764 5762 5760 5759 5759 5755 5751 5749 5746 5745 5743 5741 5738 5735 5732 5729 5727 5725 5723 5721 5719 5716 5714 5712 5709 5708 5706 5704 5701 5697 5695 5694 5693 5692 5690 5687 5684 5680 5676 5673 5672
5757 5757 5755 5752 5751 5752 5750 5746 5744 5741 5741 5739 5737 5735 5732 5729 5726 5723 5721 5719 5717 5714 5712 5710 5708 5706 5704 5703 5701 5699 5695 5692 5689 5687 5685 5685 5683 5681 5678 5675 5672 5669 5667
5746 5746 5744 5743 5742 5742 5740 5736 5734 5735 5734 5732 5729 5726 5725 5723 5721 5717 5715 5712 5710 5707 5704 5702 5700 5700 5698 5697 5695 5693 5691 5688 5685 5682 5680 5679 5677 5675 5672 5669 5667 5664 5661
5735 5735 5733 5731 5730 5731 5731 5727 5726 5726 5724 5722 5720 5718 5717 5715 5714 5711 5708 5705 5703 5700 5697 5694 5692 5691 5691 5690 5689 5687 5685 5682 5679 5677 5675 5673 5670 5668 5666 5663 5661 5657 5653
5724 5723 5721 5718 5717 5719 5720 5719 5718 5716 5714 5711 5710 5710 5709 5708 5707 5705 5703 5699 5696 5693 5690 5687 5686 5685 5683 5683 5682 5680 5677 5675 5672 5669 5667 5666 5663 5661 5659 5656 5653 5650 5646
5712 5712 5710 5708 5707 5708 5709 5709 5709 5707 5704 5702 5701 5700 5700 5698 5697 5696 5695 5694 5693 5691 5687 5684 5682 5679 5676 5678 5677 5674 5671 5668 5665 5661 5658 5656 5654 5651 5649 5647 5645 5643 5640
5701 5700 5699 5698 5698 5698 5698 5698 5698 5698 5694 5691 5691 5691 5690 5689 5688 5686 5685 5686 5686 5685 5683 5681 5679 5677 5675 5673 5670 5668 5665 5661 5658 5654 5650 5647 5645 5642 5641 5639 5637 5635 5632